カタログに戻る

COSMOS 2395

GLONASS

運用中ナビゲーションMEO
NORAD 27619·PAYLOAD·🇷🇺 Russia

打ち上げ Dec 25, 2002 から Baikonur Cosmodrome

Loading…

次のパス (今後24時間)

TLE

最新Source: Space-Track

元期: Sep 13, 2026, 05:58 UTC

1 27619U 02060C   26256.24905875 -.00000051  00000-0  00000+0 0  9990
2 27619  65.3884 312.8119 0013124 242.6552 117.0118  2.13103315184510

AllMySatでCOSMOS 2395をリアルタイム追跡

Download on the App Store